Weather History for Jefferson, NC

Change the Weather History Date:

Saturday, November 10, 2012

  Actual Average Record
Temperature  
Mean Temperature 50 °F -  
Max Temperature 66 °F 55 °F 75 °F (2006)
Min Temperature 35 °F 34 °F 18 °F (1973)
Degree Days  
Heating Degree Days 14    
Moisture  
Dew Point 20 °F    
Average Humidity 31    
Maximum Humidity 53    
Minimum Humidity 18    
Precipitation  
Precipitation 0.00 in - - ()
Sea Level Pressure  
Sea Level Pressure 30.33 in    
Wind  
Wind Speed 2 mph (South)    
Max Wind Speed 7 mph    
Max Gust Speed -    
Visibility 10 miles    
Events      
Averages and records for this station are not official NWS values.
T = Trace of Precipitation, MM = Missing Value Source: NWS Daily Summary

Daily Weather History Graph

Daily Weather History Graph

Search for Another Location

Airport:

Trip Planner

Search our weather history database for the weather conditions in past years. The results will help you decide how hot, cold, wet, or windy it might be!

Date:

Astronomy

Nov. 10, 2012 Rise Set
Actual Time 6:58 AM EST 5:20 PM EST
Civil Twilight 6:31 AM EST 5:47 PM EST
Nautical Twilight 6:00 AM EST 6:18 PM EST
Astronomical Twilight 5:29 AM EST 6:48 PM EST
Moon 3:07 AM EST (11/10) 3:01 PM EST (11/10)
Length of Visible Light 11h 16m
Length of Day
10h 22m
Waning Crescent, 14% of the Moon is Illuminated
Nov 10
Waning Crescent
Nov 13
New
Nov 20
First Quarter
Nov 28
Full
Dec 6
Last Quarter

Hourly Weather History & Observations

Time (EST) Temp. Windchill Dew Point Humidity Pressure Visibility Wind Dir Wind Speed Gust Speed Precip Events Conditions
12:15 AM 41.0 °F 36.4 °F 15.8 °F 36% 30.26 in 10.0 mi WSW 6.9 mph - N/A   Clear
12:35 AM 42.8 °F - 17.6 °F 36% 30.26 in 10.0 mi Calm Calm - N/A   Clear
12:55 AM 42.8 °F - 17.6 °F 36% 30.26 in 10.0 mi Calm Calm - N/A   Clear
1:15 AM 35.6 °F - 19.4 °F 52% 30.26 in 10.0 mi Calm Calm - N/A   Clear
1:35 AM 41.0 °F 39.0 °F 15.8 °F 36% 30.26 in 10.0 mi West 3.5 mph - N/A   Clear
1:55 AM 41.0 °F - 14.0 °F 33% 30.26 in 10.0 mi Calm Calm - N/A   Clear
2:15 AM 41.0 °F - 15.8 °F 36% 30.27 in 10.0 mi Calm Calm - N/A   Clear
2:35 AM 39.2 °F - 19.4 °F 45% 30.27 in 10.0 mi Calm Calm - N/A   Clear
2:55 AM 41.0 °F - 17.6 °F 39% 30.27 in 10.0 mi Calm Calm - N/A   Clear
3:15 AM 42.8 °F 40.1 °F 14.0 °F 31% 30.27 in 10.0 mi WSW 4.6 mph - N/A   Clear
3:35 AM 42.8 °F - 12.2 °F 29% 30.27 in 10.0 mi Calm Calm - N/A   Clear
3:55 AM 44.6 °F - 10.4 °F 25% 30.27 in 10.0 mi Calm Calm - N/A   Clear
4:15 AM 42.8 °F - 12.2 °F 29% 30.27 in 10.0 mi Calm Calm - N/A   Clear
4:55 AM 42.8 °F - 12.2 °F 29% 30.29 in 10.0 mi Calm Calm - N/A   Clear
5:35 AM 41.0 °F - 12.2 °F 31% 30.30 in 10.0 mi Calm Calm - N/A   Clear
5:55 AM 41.0 °F - 14.0 °F 33% 30.30 in 10.0 mi Calm Calm - N/A   Clear
6:35 AM 41.0 °F - 14.0 °F 33% 30.31 in 10.0 mi Calm Calm - N/A   Clear
6:55 AM 41.0 °F - 14.0 °F 33% 30.31 in 10.0 mi Calm Calm - N/A   Clear
7:15 AM 39.2 °F - 15.8 °F 39% 30.31 in 10.0 mi Calm Calm - N/A   Clear
7:35 AM 41.0 °F 39.0 °F 15.8 °F 36% 30.32 in 10.0 mi West 3.5 mph - N/A   Clear
7:55 AM 39.2 °F - 21.2 °F 49% 30.34 in 10.0 mi Calm Calm - N/A   Clear
8:15 AM 46.4 °F - 19.4 °F 34% 30.35 in 10.0 mi Calm Calm - N/A   Clear
8:35 AM 42.8 °F - 26.6 °F 53% 30.36 in 10.0 mi Calm Calm - N/A   Clear
8:55 AM 51.8 °F - 17.6 °F 26% 30.36 in 10.0 mi West 4.6 mph - N/A   Clear
9:15 AM 53.6 °F - 15.8 °F 22% 30.36 in 10.0 mi Calm Calm - N/A   Clear
9:35 AM 55.4 °F - 14.0 °F 20% 30.36 in 10.0 mi West 3.5 mph - N/A   Clear
9:55 AM 57.2 °F - 17.6 °F 21% 30.36 in 10.0 mi West 4.6 mph - N/A   Clear
10:35 AM 55.4 °F - 32.0 °F 41% 30.36 in 10.0 mi Calm Calm - N/A   Clear
10:55 AM 59.0 °F - 26.6 °F 29% 30.36 in 10.0 mi Calm Calm - N/A   Clear
11:15 AM 60.8 °F - 23.0 °F 23% 30.36 in 10.0 mi Calm Calm - N/A   Clear
11:35 AM 62.6 °F - 19.4 °F 19% 30.35 in 10.0 mi Calm Calm - N/A   Clear
12:15 PM 64.4 °F - 21.2 °F 19% 30.34 in 10.0 mi Calm Calm - N/A   Clear
12:35 PM 64.4 °F - 21.2 °F 19% 30.33 in 10.0 mi Calm Calm - N/A   Clear
12:55 PM 64.4 °F - 21.2 °F 19% 30.32 in 10.0 mi ESE 4.6 mph - N/A   Clear
1:15 PM 64.4 °F - 23.0 °F 21% 30.31 in 10.0 mi ESE 4.6 mph - N/A   Clear
1:35 PM 64.4 °F - 21.2 °F 19% 30.31 in 10.0 mi Calm Calm - N/A   Clear
2:15 PM 66.2 °F - 21.2 °F 18% 30.31 in 10.0 mi SSE 5.8 mph - N/A   Clear
2:35 PM 64.4 °F - 21.2 °F 19% 30.31 in 10.0 mi Calm Calm - N/A   Clear
2:55 PM 64.4 °F - 21.2 °F 19% 30.31 in 10.0 mi SE 4.6 mph - N/A   Clear
3:15 PM 64.4 °F - 19.4 °F 18% 30.31 in 10.0 mi SE 6.9 mph - N/A   Clear
3:35 PM 62.6 °F - 19.4 °F 19% 30.32 in 10.0 mi SSE 4.6 mph - N/A   Clear
4:15 PM 60.8 °F - 19.4 °F 20% 30.32 in 10.0 mi SSE 4.6 mph - N/A   Clear
4:35 PM 60.8 °F - 17.6 °F 19% 30.33 in 10.0 mi SSE 5.8 mph - N/A   Clear
4:55 PM 60.8 °F - 19.4 °F 20% 30.33 in 10.0 mi SSE 4.6 mph - N/A   Clear
5:15 PM 59.0 °F - 21.2 °F 23% 30.33 in 10.0 mi SSE 3.5 mph - N/A   Clear
5:35 PM 59.0 °F - 23.0 °F 25% 30.34 in 10.0 mi SSE 3.5 mph - N/A   Clear
5:55 PM 57.2 °F - 23.0 °F 27% 30.34 in 10.0 mi South 3.5 mph - N/A   Clear
6:35 PM 55.4 °F - 24.8 °F 31% 30.35 in 10.0 mi South 3.5 mph - N/A   Clear
6:55 PM 53.6 °F - 26.6 °F 35% 30.36 in 10.0 mi South 3.5 mph - N/A   Clear
7:15 PM 53.6 °F - 26.6 °F 35% 30.36 in 10.0 mi South 3.5 mph - N/A   Clear
7:35 PM 53.6 °F - 24.8 °F 33% 30.36 in 10.0 mi Calm Calm - N/A   Clear
7:55 PM 53.6 °F - 24.8 °F 33% 30.37 in 10.0 mi Calm Calm - N/A   Clear
8:15 PM 51.8 °F - 24.8 °F 35% 30.37 in 10.0 mi Calm Calm - N/A   Clear
8:35 PM 51.8 °F - 24.8 °F 35% 30.38 in 10.0 mi Calm Calm - N/A   Clear
8:55 PM 51.8 °F - 24.8 °F 35% 30.38 in 10.0 mi Calm Calm - N/A   Clear
9:35 PM 51.8 °F - 26.6 °F 38% 30.38 in 10.0 mi Calm Calm - N/A   Clear
10:15 PM 50.0 °F - 26.6 °F 40% 30.38 in 10.0 mi Calm Calm - N/A   Clear
10:35 PM 46.4 °F - 28.4 °F 50% 30.38 in 10.0 mi Calm Calm - N/A   Clear
10:55 PM 46.4 °F - 28.4 °F 50% 30.38 in 10.0 mi Calm Calm - N/A   Clear
11:35 PM 48.2 °F - 26.6 °F 43% 30.38 in 10.0 mi Calm Calm - N/A   Clear
11:55 PM 48.2 °F - 26.6 °F 43% 30.38 in 10.0 mi Calm Calm - N/A   Clear